Location: New Canada
(47.1017°N, 68.5042°W)
Time: 04:01:14
(UTC+00:00)

COSMOS 1818 DEB - Pass Details

Date: 06 December 2023
Orbit: 754 x 785 km, 65.0° (Epoch: 12 November)

Event Time Altitude Azimuth Distance (km) Brightness Sun altitude
Rises 21:45:33 0° 282° (WNW) 3,265 ? -10.0°
Reaches altitude 10° 21:49:03 10° 305° (NW) 2,343 ? -10.5°
Maximum altitude 21:52:07 15° 340° (NNW) 2,011 ? -11.0°
Drops below altitude 10° 21:55:12 10° 15° (NNE) 2,351 ? -11.5°
Enters shadow 21:56:36 - 26° (NNE) 2,676 ? -11.7°
